Location: Bothwell
(42.3833°S, 147.0000°E)
Time: 09:47:40
(UTC+10:00)

UNISAT 6 - Pass Details

Date: 07 August 2024
Orbit: 589 x 662 km, 97.7° (Epoch: 14 September)

Event Time Altitude Azimuth Distance (km) Brightness Sun altitude
Rises 04:20:02 0° 161° (SSE) 3,037 ? -32.6°
Reaches altitude 10° 04:22:23 10° 154° (SSE) 2,120 ? -32.2°
Enters shadow 04:25:56 38° 112° (ESE) 1,025 ? -31.5°
